When you browse on this site, cookies collect data to enhance your experience and personalize the content and advertising you see.
Visit our Privacy Policy to learn more. By continuing to use the site, you agree to this use of cookies and data.
EN

Hourly Weather Aberdare

Today, 8 July, Wednesday

Time Temperature Precipitation Wind Pressure Humidity
00:00 +14°C° 0 mm 6 mps 739 mmHg 97%
01:00 +14°C° 0.6 mm 6 mps 739 mmHg 98%
02:00 +14°C° 0.6 mm 5 mps 739 mmHg 98%
03:00 +14°C° 0.6 mm 5 mps 738 mmHg 98%
04:00 +14°C° 0.9 mm 4 mps 738 mmHg 98%
05:00 +14°C° 0.9 mm 3 mps 738 mmHg 98%
06:00 +13°C° 0 mm 3 mps 738 mmHg 98%
07:00 +14°C° 0.3 mm 3 mps 738 mmHg 98%
08:00 +15°C° 0.3 mm 2 mps 739 mmHg 98%
09:00 +15°C° 0.3 mm 2 mps 739 mmHg 98%
10:00 +16°C° 0.1 mm 2 mps 739 mmHg 96%
11:00 +16°C° 0.1 mm 2 mps 739 mmHg 94%
12:00 +17°C° 0.1 mm 3 mps 739 mmHg 92%
13:00 +17°C° 0.1 mm 3 mps 739 mmHg 93%
14:00 +15°C° 0.1 mm 4 mps 739 mmHg 94%
15:00 +15°C° 0.1 mm 4 mps 739 mmHg 95%
16:00 +15°C° 0.5 mm 5 mps 739 mmHg 96%
17:00 +14°C° 0.5 mm 5 mps 739 mmHg 97%
18:00 +14°C° 0.5 mm 5 mps 739 mmHg 98%
19:00 +14°C° 0.5 mm 5 mps 738 mmHg 97%
20:00 +14°C° 0.5 mm 5 mps 738 mmHg 97%
21:00 +14°C° 0.5 mm 5 mps 738 mmHg 97%
22:00 +14°C° 0.4 mm 6 mps 738 mmHg 97%
23:00 +14°C° 0.4 mm 6 mps 738 mmHg 97%

Tomorrow, 9 July, Thursday

Time Temperature Precipitation Wind Pressure Humidity
00:00 +14°C° 0.4 mm 6 mps 737 mmHg 97%
01:00 +14°C° 0.6 mm 6 mps 737 mmHg 97%
02:00 +14°C° 0.6 mm 7 mps 737 mmHg 98%
03:00 +14°C° 0.6 mm 7 mps 736 mmHg 98%
04:00 +14°C° 0.3 mm 7 mps 736 mmHg 98%
05:00 +14°C° 0.3 mm 7 mps 736 mmHg 97%
06:00 +14°C° 0.3 mm 7 mps 736 mmHg 97%
07:00 +14°C° 0.2 mm 6 mps 736 mmHg 97%
08:00 +14°C° 0.2 mm 5 mps 736 mmHg 97%
09:00 +15°C° 0.2 mm 5 mps 737 mmHg 97%
10:00 +15°C° 0.1 mm 5 mps 737 mmHg 96%
11:00 +15°C° 0.1 mm 4 mps 737 mmHg 95%
12:00 +15°C° 0.1 mm 4 mps 737 mmHg 94%
13:00 +15°C° 0.1 mm 4 mps 737 mmHg 94%
14:00 +15°C° 0.1 mm 4 mps 737 mmHg 94%
15:00 +16°C° 0.1 mm 3 mps 737 mmHg 95%
16:00 +16°C° 0.1 mm 3 mps 737 mmHg 94%
17:00 +16°C° 0.1 mm 3 mps 737 mmHg 93%
18:00 +16°C° 0.1 mm 2 mps 737 mmHg 92%
19:00 +15°C° 0 mm 2 mps 737 mmHg 93%
20:00 +14°C° 0 mm 2 mps 738 mmHg 94%
21:00 +13°C° 0 mm 2 mps 738 mmHg 95%
22:00 +13°C° 0 mm 2 mps 738 mmHg 95%
23:00 +12°C° 0 mm 2 mps 739 mmHg 95%

Day after tomorrow, 10 July, Friday

Time Temperature Precipitation Wind Pressure Humidity
00:00 +10°C° 0 mm 2 mps 739 mmHg 95%
01:00 +10°C° 0 mm 2 mps 739 mmHg 95%
02:00 +9°C° 0 mm 2 mps 739 mmHg 95%
03:00 +8°C° 0 mm 2 mps 739 mmHg 95%
04:00 +9°C° 0 mm 2 mps 740 mmHg 94%
05:00 +9°C° 0 mm 3 mps 740 mmHg 92%
06:00 +9°C° 0 mm 3 mps 740 mmHg 90%
07:00 +10°C° 0 mm 4 mps 741 mmHg 84%
08:00 +12°C° 0 mm 5 mps 741 mmHg 78%
09:00 +13°C° 0 mm 6 mps 742 mmHg 73%
10:00 +13°C° 0.1 mm 6 mps 742 mmHg 71%
11:00 +14°C° 0.1 mm 7 mps 742 mmHg 70%
12:00 +14°C° 0.1 mm 7 mps 742 mmHg 69%
13:00 +14°C° 0 mm 7 mps 743 mmHg 69%
14:00 +14°C° 0 mm 7 mps 743 mmHg 69%
15:00 +14°C° 0 mm 7 mps 743 mmHg 69%
16:00 +14°C° 0 mm 6 mps 743 mmHg 71%
17:00 +14°C° 0 mm 6 mps 743 mmHg 73%
18:00 +13°C° 0 mm 6 mps 743 mmHg 75%
19:00 +12°C° 0 mm 5 mps 744 mmHg 81%
20:00 +10°C° 0 mm 4 mps 744 mmHg 86%
21:00 +9°C° 0 mm 3 mps 745 mmHg 91%
22:00 +8°C° 0 mm 2 mps 745 mmHg 92%
23:00 +8°C° 0 mm 2 mps 745 mmHg 92%

11 July, Saturday

Time Temperature Precipitation Wind Pressure Humidity
00:00 +7°C° 0 mm 2 mps 745 mmHg 92%
01:00 +7°C° 0 mm 2 mps 746 mmHg 93%
02:00 +8°C° 0 mm 1 mps 746 mmHg 93%
03:00 +8°C° 0 mm 1 mps 746 mmHg 93%
04:00 +9°C° 0 mm 1 mps 746 mmHg 92%
05:00 +10°C° 0 mm 1 mps 746 mmHg 92%
06:00 +11°C° 0 mm 1 mps 747 mmHg 91%
07:00 +12°C° 0 mm 2 mps 747 mmHg 85%
08:00 +14°C° 0 mm 2 mps 748 mmHg 80%
09:00 +14°C° 0 mm 3 mps 748 mmHg 74%
10:00 +16°C° 0 mm 3 mps 748 mmHg 71%
11:00 +17°C° 0 mm 3 mps 748 mmHg 67%
12:00 +18°C° 0 mm 3 mps 748 mmHg 64%
13:00 +18°C° 0 mm 3 mps 748 mmHg 65%
14:00 +17°C° 0 mm 4 mps 748 mmHg 66%
15:00 +17°C° 0 mm 4 mps 748 mmHg 68%
16:00 +17°C° 0 mm 4 mps 748 mmHg 71%
17:00 +16°C° 0 mm 3 mps 748 mmHg 73%
18:00 +16°C° 0 mm 3 mps 748 mmHg 76%
19:00 +14°C° 0 mm 2 mps 748 mmHg 80%
20:00 +12°C° 0 mm 2 mps 748 mmHg 84%
21:00 +10°C° 0 mm 1 mps 748 mmHg 88%
22:00 +10°C° 0 mm 1 mps 748 mmHg 87%
23:00 +9°C° 0 mm 1 mps 748 mmHg 86%

12 July, Sunday

Time Temperature Precipitation Wind Pressure Humidity
00:00 +9°C° 0 mm 1 mps 748 mmHg 85%
01:00 +8°C° 0 mm 1 mps 748 mmHg 85%
02:00 +8°C° 0 mm 1 mps 748 mmHg 84%
03:00 +8°C° 0 mm 1 mps 747 mmHg 83%
04:00 +8°C° 0 mm 0 mps 748 mmHg 83%
05:00 +9°C° 0 mm 0 mps 748 mmHg 82%
06:00 +10°C° 0 mm 0 mps 748 mmHg 81%
07:00 +11°C° 0 mm 0 mps 748 mmHg 76%
08:00 +14°C° 0 mm 1 mps 748 mmHg 71%
09:00 +15°C° 0 mm 1 mps 748 mmHg 66%
10:00 +16°C° 0 mm 1 mps 748 mmHg 64%
11:00 +17°C° 0 mm 2 mps 748 mmHg 62%
12:00 +18°C° 0 mm 2 mps 748 mmHg 60%
13:00 +18°C° 0 mm 2 mps 748 mmHg 61%
14:00 +18°C° 0 mm 3 mps 748 mmHg 62%
15:00 +18°C° 0 mm 3 mps 748 mmHg 63%
16:00 +17°C° 0 mm 3 mps 748 mmHg 67%
17:00 +17°C° 0 mm 3 mps 747 mmHg 71%
18:00 +16°C° 0 mm 2 mps 747 mmHg 75%
19:00 +14°C° 0 mm 2 mps 747 mmHg 79%
20:00 +13°C° 0 mm 1 mps 747 mmHg 83%
21:00 +11°C° 0 mm 1 mps 747 mmHg 87%
22:00 +11°C° 0 mm 1 mps 747 mmHg 87%
23:00 +10°C° 0 mm 1 mps 747 mmHg 87%

13 July, Monday

Time Temperature Precipitation Wind Pressure Humidity
00:00 +10°C° 0 mm 1 mps 746 mmHg 87%
01:00 +10°C° 0 mm 1 mps 746 mmHg 86%
02:00 +10°C° 0 mm 1 mps 746 mmHg 85%
03:00 +10°C° 0 mm 1 mps 745 mmHg 84%
04:00 +11°C° 0 mm 1 mps 745 mmHg 85%
05:00 +10°C° 0 mm 2 mps 745 mmHg 86%
06:00 +12°C° 0 mm 2 mps 745 mmHg 86%
07:00 +13°C° 0 mm 2 mps 745 mmHg 85%
08:00 +13°C° 0 mm 3 mps 745 mmHg 83%
09:00 +14°C° 0 mm 4 mps 745 mmHg 81%
10:00 +14°C° 0 mm 4 mps 745 mmHg 82%
11:00 +14°C° 0 mm 5 mps 745 mmHg 82%
12:00 +15°C° 0 mm 5 mps 744 mmHg 82%
13:00 +15°C° 0 mm 5 mps 744 mmHg 82%
14:00 +15°C° 0 mm 5 mps 744 mmHg 82%
15:00 +16°C° 0 mm 5 mps 743 mmHg 82%
16:00 +16°C° 0.1 mm 5 mps 743 mmHg 83%
17:00 +15°C° 0.1 mm 5 mps 743 mmHg 85%
18:00 +15°C° 0.1 mm 5 mps 743 mmHg 86%
19:00 +14°C° 0 mm 4 mps 743 mmHg 90%
20:00 +12°C° 0 mm 3 mps 743 mmHg 93%
21:00 +11°C° 0 mm 3 mps 743 mmHg 96%
22:00 +12°C° 0 mm 2 mps 743 mmHg 96%
23:00 +10°C° 0 mm 2 mps 742 mmHg 96%
Show more